Fort Hood, TX

6:47 PM CST on November 17, 2019 (GMT -0600)
Killeen-Fort Hood Regional

Weather History for KGRK - October, 2019

Change the Weather History Date:

Tuesday, October 22, 2019

  Actual Average Record
Temperature  
Mean Temperature 60 °F -  
Max Temperature 75 °F 75 °F 91 °F (2003)
Min Temperature 46 °F 56 °F 42 °F (2006)
Degree Days  
Heating Degree Days 4    
Growing Degree Days 10 (Base 50)    
Moisture  
Dew Point 37 °F    
Average Humidity 45    
Maximum Humidity 78    
Minimum Humidity 20    
Precipitation  
Precipitation 0.00 in - - ()
Sea Level Pressure  
Sea Level Pressure 30.14 in    
Wind  
Wind Speed 4 mph (East)    
Max Wind Speed 9 mph    
Max Gust Speed 16 mph    
Visibility 10 miles    
Events      
Averages and records for this station are not official NWS values.
T = Trace of Precipitation, MM = Missing Value Source: NWS Daily Summary

Daily Weather History Graph

Daily Weather History Graph

Search for Another Location

Airport or City:

Astronomy

Oct. 22, 2019 Rise Set
Actual Time 7:38 AM CDT 6:52 PM CDT
Civil Twilight 7:14 AM CDT 7:16 PM CDT
Nautical Twilight 6:45 AM CDT 7:45 PM CDT
Astronomical Twilight 6:17 AM CDT 8:13 PM CDT
Moon 1:22 AM CDT (10/22) 3:32 PM CDT (10/22)
Length of Visible Light 12h 02m
Length of Day
11h 13m
Last Quarter, 37% of the Moon is Illuminated
Oct 22
Last Quarter
Oct 27
New
Nov 4
First Quarter
Nov 12
Full
Nov 19
Last Quarter

Hourly Weather History & Observations

Time (CDT) Temp. Windchill Dew Point Humidity Pressure Visibility Wind Dir Wind Speed Gust Speed Precip Events Conditions
12:58 AM 56.3 °F - 39.2 °F 53% 30.08 in 10.0 mi WNW 3.5 mph - N/A   Clear
1:58 AM 56.5 °F - 38.7 °F 51% 30.10 in 10.0 mi Calm Calm - N/A   Clear
2:58 AM 53.2 °F - 39.2 °F 59% 30.10 in 10.0 mi Calm Calm - N/A   Clear
3:58 AM 50.0 °F - 40.1 °F 69% 30.10 in 10.0 mi Calm Calm - N/A   Clear
4:58 AM 50.7 °F - 39.2 °F 65% 30.10 in 10.0 mi Calm Calm - N/A   Clear
5:58 AM 47.7 °F - 39.9 °F 75% 30.13 in 10.0 mi Calm Calm - N/A   Clear
6:58 AM 48.6 °F - 39.6 °F 71% 30.16 in 10.0 mi Calm Calm - N/A   Clear
7:58 AM 46.0 °F 41.9 °F 39.6 °F 78% 30.18 in 10.0 mi North 8.1 mph - N/A   Clear
8:58 AM 52.9 °F - 44.4 °F 73% 30.19 in 10.0 mi North 8.1 mph - N/A   Clear
9:58 AM 61.0 °F - 47.7 °F 62% 30.21 in 9.0 mi North 5.8 mph - N/A   Clear
10:58 AM 68.5 °F - 39.6 °F 35% 30.21 in 9.0 mi ENE 5.8 mph - N/A   Clear
11:58 AM 69.8 °F - 40.5 °F 34% 30.23 in 9.0 mi ENE 9.2 mph - N/A   Clear
12:58 PM 71.8 °F - 33.6 °F 25% 30.22 in 9.0 mi NE 3.5 mph - N/A   Clear
1:58 PM 73.0 °F - 30.6 °F 21% 30.18 in 8.0 mi SE 5.8 mph 16.1 mph N/A   Clear
2:58 PM 74.5 °F - 30.9 °F 20% 30.15 in 10.0 mi East 6.9 mph - N/A   Clear
3:58 PM 75.2 °F - 31.1 °F 20% 30.13 in 10.0 mi ENE 3.5 mph - N/A   Clear
4:58 PM 75.0 °F - 31.3 °F 20% 30.12 in 10.0 mi East 8.1 mph - N/A   Clear
5:58 PM 73.9 °F - 31.6 °F 21% 30.11 in 10.0 mi ESE 8.1 mph - N/A   Clear
6:58 PM 69.1 °F - 34.2 °F 28% 30.12 in 10.0 mi East 6.9 mph - N/A   Clear
7:58 PM 66.2 °F - 35.4 °F 32% 30.11 in 10.0 mi East 8.1 mph - N/A   Clear
8:58 PM 64.8 °F - 36.3 °F 35% 30.09 in 10.0 mi ESE 8.1 mph - N/A   Clear
9:58 PM 61.5 °F - 36.5 °F 39% 30.09 in 10.0 mi ESE 8.1 mph - N/A   Clear
10:58 PM 59.9 °F - 36.7 °F 42% 30.09 in 9.0 mi SSE 9.2 mph - N/A   Clear
11:58 PM 57.2 °F - 37.4 °F 48% 30.09 in 10.0 mi SSE 6.9 mph - 0.00 in   Clear